[[{"header":{"parameterUnit":"m.s-1","parameterCategory":1,"la1":30.2991,"la2":30.254,"lo1":-89.0895,"lo2":-89.0444,"dy":0.0017,"dx":0.0017,"nx":28,"ny":28,"refTime":"2024-07-17T09:00:00:Z","depth":0,"parameterNumber":2,"parameterNumberName":"U-component_of_WINDS"},"data":[0,0,0,0,0,0,0,0,0,0,0,0,0,0,0,0,0,0,0,0,0,0,0,0,0,0,0,0,0,0,0,0,0,0,0,0,0,0,0,0,0,0,0,0,0,0,0,0,0,0,0,0,0,0,0,0,0,0,1.773,1.7729,0,1.7693,1.7693,1.7693,1.7645,1.7644,1.7643,1.7643,1.7605,1.7605,1.7605,0,0,0,0,0,0,0,0,0,0,0,0,0,1.7755,1.7755,1.773,1.7729,1.7729,1.7694,1.7693,1.7693,1.7645,1.7644,1.7643,1.7642,1.7605,1.7605,1.7605,0,0,0,0,0,0,0,0,0,0,0,0,0,1.7734,1.7755,1.773,1.7701,1.7698,1.7694,1.7693,1.7692,1.7645,1.7644,1.7643,1.7642,1.7605,1.7605,1.7605,1.7626,0,0,1.7603,1.7603,0,0,0,0,0,0,0,0,1.7735,1.7733,1.7706,1.7703,1.7699,1.7672,1.7688,1.767,1.7645,1.7665,1.7643,1.7641,1.7629,1.7626,1.7622,1.7624,1.7622,1.7603,1.7603,1.7603,1.7603,0,0,0,0,0,0,0,1.7737,1.7734,1.7715,1.7705,1.7701,1.7689,1.7684,1.7685,1.7654,1.7663,1.766,1.7656,1.7627,1.7622,1.7621,1.7622,1.7603,1.7603,1.7603,1.7603,1.7636,1.7637,0,0,0,0,0,0,1.7743,1.7736,1.7716,1.7714,1.7715,1.7689,1.7684,1.7682,1.7654,1.7648,1.7657,1.7654,1.7624,1.7621,1.7619,1.7639,1.7603,1.7603,1.7602,1.7634,1.7636,1.7637,0,0,0,0,0,0,1.7744,1.7742,1.7718,1.7724,1.772,1.769,1.7688,1.7682,1.7678,1.7649,1.7643,1.7659,1.7623,1.762,1.7624,1.7637,1.7602,1.7602,1.7633,1.7635,1.7636,1.7681,0,0,0,0,0,0,1.7745,1.7742,1.7751,1.7725,1.772,1.7724,1.7689,1.7682,1.7677,1.7673,1.7649,1.7644,1.7622,1.7624,1.7623,1.7636,1.7602,1.7632,1.7634,1.7636,1.7678,1.7684,1.7689,0,0,0,0,0,1.7746,1.7766,1.7751,1.7749,1.773,1.7725,1.7722,1.7696,1.7679,1.7686,1.7667,1.7645,1.7636,1.7625,1.7624,1.7637,1.7631,1.7633,1.7636,1.7676,1.7683,1.7689,0,0,0,0,0,0,1.7795,1.7762,1.7746,1.7758,1.7744,1.7717,1.7726,1.7705,1.7696,1.7692,1.766,1.7655,1.7662,1.765,1.7638,1.7654,1.763,1.7632,1.7661,1.7668,1.7673,1.7675,1.7601,0,0,0,0,0,1.7807,1.7806,1.7777,1.779,1.7784,1.7756,1.7753,1.7734,1.7719,1.7713,1.7694,1.768,1.7673,1.767,1.7663,1.7677,1.7669,1.7685,1.769,1.7695,1.7697,1.7699,1.7705,1.7645,1.7645,1.7645,0,0,1.7832,1.7814,1.7815,1.78,1.7787,1.7785,1.7752,1.7752,1.775,1.7713,1.7714,1.77,1.7682,1.769,1.7692,1.768,1.7711,1.7698,1.7702,1.7701,1.7702,1.7708,1.7713,1.7647,1.7647,1.7646,0,0,1.7876,1.7864,1.7872,1.7859,1.784,1.7821,1.7823,1.7798,1.7786,1.7788,1.7759,1.7755,1.7747,1.7733,1.7726,1.7763,1.774,1.7761,1.7789,1.7792,1.7797,1.7801,1.7811,1.7816,1.7764,1.7764,1.7764,0,1.791,1.7907,1.7879,1.788,1.7873,1.7838,1.7845,1.7834,1.7814,1.7809,1.7796,1.7781,1.7767,1.7769,1.7778,1.7774,1.7773,1.7763,1.7799,1.7802,1.7806,1.7815,1.7819,1.7766,1.7766,1.7766,1.7765,0,1.7947,1.7945,1.7954,1.7934,1.7928,1.7933,1.7904,1.7901,1.7882,1.7864,1.7864,1.7845,1.7832,1.7831,1.7814,1.7831,1.7823,1.7805,1.778,1.7814,1.7822,1.7826,1.777,1.7769,1.7768,1.7767,0,0,1.8022,1.7985,1.7988,1.7977,1.7952,1.795,1.7952,1.7938,1.7935,1.7922,1.7921,1.7913,1.7895,1.7886,1.7866,1.7869,1.7895,1.785,1.7849,1.7857,1.791,1.7922,1.7927,1.7881,1.7882,1.7882,1.791,0,1.8059,1.806,1.8034,1.8041,1.8038,1.8004,1.8005,1.7989,1.7972,1.7965,1.7946,1.7939,1.7917,1.7911,1.7913,1.7892,1.7905,1.789,1.7878,1.7878,1.7882,1.7932,1.7946,1.7973,1.7914,1.7914,1.7915,0,1.8104,1.8092,1.8099,1.8071,1.8068,1.807,1.8053,1.8049,1.8029,1.8016,1.8005,1.7982,1.798,1.7957,1.7953,1.7943,1.7936,1.7925,1.7925,1.7922,1.7897,1.7927,1.7982,1.7985,1.792,1.792,1.7919,0,1.8154,1.814,1.8141,1.8133,1.8101,1.8102,1.8089,1.8069,1.8061,1.8048,1.8042,1.8029,1.8021,1.801,1.7983,1.797,1.798,1.7956,1.7968,1.7968,1.797,1.797,1.8022,1.797,1.797,1.797,1.797,0,1.8198,1.8202,1.8162,1.8163,1.8167,1.8136,1.814,1.8123,1.8105,1.8101,1.8071,1.8068,1.8033,1.8025,1.8004,1.8002,1.7999,1.7987,1.7981,1.7988,1.799,1.7982,1.7979,1.7971,1.7971,1.797,1.797,0,1.8254,1.8228,1.8226,1.8196,1.8188,1.8192,1.8165,1.8163,1.8144,1.8138,1.8135,1.8104,1.8093,1.8065,1.8047,1.8033,1.8035,1.8026,1.8041,1.8037,1.8049,1.8047,1.8096,1.81,1.8048,1.8049,1.8049,0,1.8282,1.8285,1.8254,1.8249,1.8237,1.8229,1.8221,1.819,1.8183,1.8159,1.816,1.8146,1.8134,1.8117,1.8092,1.8078,1.8066,1.8084,1.8064,1.807,1.8063,1.8062,1.8061,1.8088,1.8089,1.809,1.809,0,1.8335,1.8321,1.8311,1.8295,1.8286,1.8272,1.8257,1.8254,1.8219,1.8212,1.82,1.819,1.8171,1.8157,1.8138,1.8123,1.81,1.8097,1.8098,1.8105,1.8113,1.8106,1.8051,1.8095,1.8095,1.8095,1.8094,1.8094,1.8376,1.8376,1.8353,1.8342,1.8327,1.8312,1.8308,1.8287,1.8277,1.8258,1.8241,1.823,1.8207,1.8179,1.8166,1.8156,1.8144,1.8147,1.8147,1.8148,1.815,1.8116,1.8153,1.8152,1.8152,1.8152,1.8152,0,1.8425,1.8408,1.8398,1.8377,1.8367,1.8347,1.8328,1.8321,1.8311,1.8293,1.828,1.8265,1.825,1.8224,1.8207,1.8203,1.8192,1.82,1.8199,1.8195,1.8163,1.8162,1.8209,1.8209,1.8209,1.8209,1.8209,1.8209,1.8449,1.8446,1.8429,1.8418,1.8401,1.8389,1.838,1.8366,1.835,1.8334,1.8322,1.8305,1.8282,1.8262,1.8248,1.824,1.8234,1.8244,1.8233,1.8203,1.8198,1.8193,1.8192,1.8244,1.8244,1.8266,1.8266,1.8267]},{"header":{"parameterUnit":"m.s-1","parameterCategory":1,"la1":30.2991,"la2":30.254,"lo1":-89.0895,"lo2":-89.0444,"dy":0.0017,"dx":0.0017,"nx":28,"ny":28,"refTime":"2024-07-17T09:00:00:Z","depth":0,"parameterNumber":3,"parameterNumberName":"V-component_of_WINDS"},"data":[0,0,0,0,0,0,0,0,0,0,0,0,0,0,0,0,0,0,0,0,0,0,0,0,0,0,0,0,0,0,0,0,0,0,0,0,0,0,0,0,0,0,0,0,0,0,0,0,0,0,0,0,0,0,0,0,0,0,5.2178,5.2179,0,5.229,5.2291,5.2292,5.2254,5.2252,5.2249,5.2247,5.2354,5.2359,5.2364,0,0,0,0,0,0,0,0,0,0,0,0,0,5.1921,5.1926,5.2177,5.2179,5.218,5.2289,5.2291,5.2293,5.2255,5.2252,5.2249,5.2246,5.2352,5.2358,5.2364,0,0,0,0,0,0,0,0,0,0,0,0,0,5.2032,5.1927,5.2177,5.2175,5.2176,5.2289,5.2291,5.2293,5.2255,5.2252,5.2248,5.2245,5.235,5.2358,5.2365,5.2485,0,0,5.2389,5.2392,0,0,0,0,0,0,0,0,5.2026,5.2042,5.2174,5.2175,5.2176,5.2255,5.224,5.2357,5.2256,5.2225,5.2247,5.2243,5.2323,5.2333,5.2362,5.249,5.2495,5.2389,5.2394,5.2397,5.2399,0,0,0,0,0,0,0,5.2019,5.2037,5.2222,5.2176,5.2177,5.2165,5.2177,5.2262,5.2293,5.2227,5.2225,5.2239,5.2323,5.2354,5.2364,5.2496,5.2389,5.2396,5.2401,5.2404,5.2725,5.2729,0,0,0,0,0,0,5.2011,5.2031,5.2218,5.2225,5.2091,5.2173,5.2186,5.2233,5.2292,5.2298,5.2242,5.2237,5.2343,5.2355,5.2367,5.251,5.2397,5.2404,5.2409,5.2721,5.2726,5.273,0,0,0,0,0,0,5.2006,5.2028,5.2213,5.2127,5.215,5.2181,5.2234,5.2237,5.2268,5.2303,5.2308,5.2269,5.2341,5.2357,5.2456,5.2513,5.2408,5.2415,5.2717,5.2723,5.2728,5.2796,0,0,0,0,0,0,5.1999,5.2027,5.2075,5.2129,5.2155,5.2303,5.2238,5.2242,5.2283,5.2277,5.2329,5.2335,5.2339,5.2445,5.2464,5.2521,5.2421,5.2712,5.2719,5.2726,5.2789,5.2804,5.2816,0,0,0,0,0,5.199,5.2089,5.2078,5.2101,5.2216,5.2307,5.2321,5.2327,5.2287,5.2334,5.2356,5.2333,5.2504,5.2455,5.2476,5.2537,5.2708,5.2717,5.2726,5.2783,5.2801,5.2816,0,0,0,0,0,0,5.2038,5.2096,5.2084,5.2204,5.2251,5.23,5.236,5.2346,5.2403,5.2395,5.2397,5.2409,5.2511,5.2534,5.2479,5.2654,5.26,5.2613,5.2636,5.2653,5.2667,5.2658,5.2427,0,0,0,0,0,5.2064,5.2135,5.218,5.2281,5.2306,5.2329,5.2369,5.2369,5.2416,5.2435,5.2465,5.2509,5.2573,5.2614,5.2675,5.2792,5.2801,5.2844,5.2858,5.2869,5.288,5.294,5.2959,5.276,5.2759,5.2759,0,0,5.2115,5.2155,5.22,5.2292,5.2329,5.2399,5.2346,5.2424,5.2475,5.2446,5.2542,5.2565,5.2614,5.2723,5.2772,5.2745,5.2937,5.288,5.2889,5.2894,5.2952,5.297,5.2987,5.2766,5.2764,5.2764,0,0,5.2245,5.2285,5.2372,5.241,5.2467,5.2481,5.2502,5.2553,5.2568,5.2665,5.2644,5.2703,5.2814,5.2849,5.2882,5.3023,5.3003,5.3043,5.3114,5.3173,5.3188,5.3202,5.325,5.3268,5.3054,5.3054,5.3054,0,5.2302,5.2411,5.2418,5.2498,5.2537,5.2517,5.2603,5.2638,5.271,5.2737,5.2706,5.2843,5.2875,5.299,5.3024,5.3052,5.3073,5.3036,5.3186,5.32,5.3213,5.3259,5.3277,5.3059,5.3058,5.3058,5.3057,0,5.2476,5.2552,5.2615,5.2688,5.2734,5.2817,5.2833,5.2879,5.2874,5.2891,5.2987,5.3025,5.3092,5.3119,5.3116,5.3233,5.3214,5.3186,5.313,5.3236,5.3279,5.3297,5.3065,5.3063,5.3062,5.3061,0,0,5.264,5.2715,5.2738,5.277,5.283,5.2887,5.2967,5.3034,5.3072,5.3122,5.3186,5.328,5.3253,5.3289,5.3289,5.3341,5.3448,5.3305,5.3306,5.3328,5.3576,5.3596,5.3616,5.3435,5.3438,5.3441,5.3571,0,5.2773,5.2917,5.2925,5.3054,5.3121,5.3102,5.3171,5.3213,5.3231,5.3288,5.3305,5.3371,5.3332,5.3353,5.3404,5.3424,5.3497,5.3415,5.3492,5.3494,5.3478,5.3639,5.3661,5.3782,5.3588,5.3591,5.3593,0,5.2948,5.3006,5.3142,5.3191,5.3219,5.3282,5.3343,5.3399,5.3445,5.3454,5.3495,5.3486,5.3564,5.3507,5.3613,5.3557,5.3588,5.3602,5.3607,5.3613,5.3549,5.3647,5.3821,5.3838,5.362,5.3618,5.3616,0,5.3051,5.3162,5.3258,5.3286,5.3345,5.3389,5.3415,5.3458,5.3498,5.355,5.3575,5.3635,5.3667,5.3712,5.3719,5.3677,5.3823,5.3768,5.383,5.383,5.386,5.3858,5.4039,5.3884,5.3884,5.3884,5.3883,0,5.3198,5.3281,5.3304,5.3363,5.3454,5.3461,5.355,5.3573,5.3611,5.3671,5.3657,5.3713,5.3719,5.3776,5.3781,5.3866,5.3881,5.3887,5.3887,5.3888,5.3887,5.3907,5.3898,5.3888,5.3887,5.3886,5.3886,0,5.3328,5.3347,5.3449,5.3498,5.3512,5.3577,5.3616,5.367,5.3686,5.3762,5.378,5.3803,5.3869,5.388,5.3957,5.396,5.4061,5.4053,5.4046,5.4044,5.4105,5.4098,5.4304,5.433,5.416,5.4162,5.4163,0,5.342,5.3484,5.3539,5.358,5.3609,5.3674,5.3714,5.3722,5.3764,5.382,5.3867,5.3931,5.3983,5.4088,5.411,5.4168,5.416,5.4228,5.4168,5.4166,5.4158,5.4154,5.4158,5.4239,5.4241,5.4243,5.4244,0,5.3579,5.3585,5.3646,5.3709,5.3758,5.3808,5.3854,5.3887,5.39,5.3948,5.4016,5.4056,5.4135,5.4198,5.4256,5.4279,5.4262,5.4263,5.428,5.428,5.4272,5.4274,5.4075,5.4258,5.4256,5.4255,5.4254,5.4254,5.3691,5.3746,5.3794,5.386,5.3897,5.394,5.3993,5.4016,5.4074,5.414,5.414,5.4214,5.4255,5.4331,5.4358,5.4414,5.4391,5.4417,5.4422,5.4428,5.4433,5.4265,5.4424,5.4424,5.4424,5.4423,5.4423,0,5.3848,5.3878,5.3939,5.4006,5.4057,5.4041,5.4091,5.4134,5.42,5.4242,5.4293,5.437,5.4431,5.4457,5.4516,5.4555,5.4549,5.457,5.4566,5.4571,5.4451,5.4429,5.4574,5.4574,5.4574,5.4574,5.4574,5.4574,5.3936,5.4027,5.4039,5.4146,5.4174,5.4249,5.4278,5.4317,5.435,5.4437,5.4489,5.4506,5.4541,5.4602,5.4656,5.4661,5.4682,5.4707,5.4709,5.4595,5.458,5.4565,5.4545,5.4712,5.4712,5.4824,5.4825,5.4826]}]]